Location: Drignac
(45.1667°N, 2.0333°E)
Time: 08:02:50
(UTC+00:00)

Cosmos 1980 Rocket - Pass Details

Date: 29 March 2020
Orbit: 828 x 851 km, 71.0° (Epoch: 02 June)

Event Time Altitude Azimuth Distance (km) Brightness Sun altitude
Rises 22:46:28 0° 342° (NNW) 3,383 6.3 -38.6°
Reaches altitude 10° 22:49:32 10° 358° (N) 2,448 5.2 -38.8°
Enters shadow 22:51:57 18° 22° (NNE) 1,927 4.4 -38.9°
